STARLINK-1367 (45539 NORAD) Tracking and Keplerian Element Data

This shows tracking and keplerian element data for the satellite.

Feedback or suggestion? Click here.




ElementValue
Catalog45539
NameSTARLINK-1367
Epoch Orbit623
Epoch Day149.00001157
Epoch Year2020
RAAN225.8417
Inclination52.9701
Eccentricity0.0008555
Argument of Perigee292.2969
Mean Anonmoly7.7522
Mean Motion15.62739442
Decay Rate0.00028518
L11 45539U 20025J 20149.00001157 .00028518 00000-0 31588-3 0 9997
L22 45539 52.9701 225.8417 0008555 292.2969 7.7522 15.62739442 6230

Live tracking and technical data element details for STARLINK-1367 (NORAD 45539). STARLINK-1367 can be tracked NOW for your location showing map with azimuth and elevation plus other details from your city location.

Track the satellite on the map from your city or location and see movement details for azimuth, elevation, latitude, longitude, range, height, and movement on the map or in text.







IsCatalogInMostPopularTable: catalog: 45539, numindb: 6
Update: records affected: 1



GetName: 45539 STARLINK-1367

Hit Count: updated at: Sat, 30 May 2020 15:19:34 GMT